Location: Unspecified
(0.0000°N, 0.0000°E)
Time: 14:38:08
(UTC+02:00)

Hubble Space Telescope - Visible Passes

Search period start: 29 August 2015 00:00
Search period end: 08 September 2015 00:00
Orbit: 541 x 545 km, 28.5° (Epoch: 27 August)

Date Brightness Start Highest point End Pass type
(mag) Time Alt. Az. Time Alt. Az. Time Alt. Az.
29 Aug 1.8 06:21:02 37° N 06:21:02 37° N 06:24:02 10° NE visible
30 Aug 2.7 06:12:53 22° NNE 06:12:53 22° NNE 06:14:50 10° NNE visible
31 Aug 3.4 06:04:42 14° NNE 06:04:42 14° NNE 06:05:29 10° NNE visible
